Home > Time Zones > World Clock > Weather > Russia > Ufa > Past weeks

Flag for Russia Weather past 2 weeks in Ufa, Russia

Now
36 °F

Passing clouds.


Feels Like: 33 °F
Forecast: 36 / 46 °F
Wind: 3 mph from Northwest

Location: Ufa

Current Time: Apr 19, 2015 at 12:48:16 AM

Latest Report: Apr 19, 2015 at 12:30 AM


Visibility: N/A

Pressure: 29.65 "Hg

Humidity: 87%

Dew point: 32 °F

Location of UfaLocation

Historic Weather in Ufa — Graph

°F

Ufa temperature yesterday

Maximum temperature yesterday: 50 °F (at 2:00 PM)
Minimum temperature yesterday: 34 °F (at 4:00 AM)
Average temperature yesterday: 41 °F

Past Weeks' High & Low Weather Summary

 TemperatureHumidityPressure
High59 °F (Apr 15, 3:30 PM)100% (Apr 6, 5:30 AM)30.24 "Hg (Apr 6, 5:30 AM)
Low27 °F (Apr 4, 3:30 AM)31% (Apr 15, 3:30 PM)29.47 "Hg (Apr 9, 2:30 PM)
Average39 °F75%29.92 "Hg
* Reported Midnight between Apr 3 and Apr 4 — Midnight between Apr 18 and Apr 19, Ufa, Weather by CustomWeather, © 2015

Note: Actual official high and low records may vary slightly from our data, if they occured in-between our weather recording intervals... More about our weather records

Advertising

Ufa weather history for previous 24 hours

 ConditionsComfort  
Time TempWeatherWind HumidityBarometerVisibility
12:00 AM
Sun, Apr 19
37 °FPassing clouds.8 mph81%29.65 "HgN/A
11:30 PM
Sat, Apr 18
36 °FPassing clouds.8 mph87%29.65 "HgN/A
11:00 PM37 °FPassing clouds.No wind81%29.65 "HgN/A
10:30 PM34 °FPassing clouds.1 mph93%29.65 "HgN/A
10:00 PM34 °FPartly sunny.6 mph87%29.65 "HgN/A
9:30 PM36 °FPartly sunny.3 mph87%29.65 "HgN/A
9:00 PM39 °FPartly sunny.6 mph81%29.62 "HgN/A
8:30 PM39 °FPartly sunny.6 mph87%29.62 "HgN/A
8:00 PM41 °FPartly sunny.6 mph81%29.62 "HgN/A
7:30 PM41 °FSprinkles. Partly sunny.10 mph81%29.62 "HgN/A
7:00 PM43 °FThundershowers. Partly sunny.13 mph71%29.62 "HgN/A
6:30 PM46 °FPartly sunny.6 mph62%29.59 "HgN/A
6:00 PM46 °FPartly sunny.13 mph62%29.59 "HgN/A
5:30 PM48 °FPartly sunny.17 mph58%29.59 "HgN/A
5:00 PM45 °FSprinkles. Partly sunny.22 mph66%29.59 "HgN/A
4:30 PM46 °FPartly sunny.20 mph62%29.56 "HgN/A
4:00 PM46 °FSprinkles. Partly sunny.22 mph57%29.59 "HgN/A
3:30 PM45 °FSprinkles. Partly sunny.15 mph57%29.56 "HgN/A
3:00 PM50 °FPartly sunny.15 mph47%29.56 "HgN/A
2:30 PM48 °FPartly sunny.20 mph54%29.53 "HgN/A
2:00 PM50 °FPartly sunny.17 mph50%29.53 "HgN/A
1:30 PM48 °FPartly sunny.17 mph54%29.53 "HgN/A
1:00 PM46 °FPartly sunny.15 mph57%29.53 "HgN/A
12:30 PM46 °FPartly sunny.20 mph57%29.53 "HgN/A
12:00 PM46 °FPartly sunny.17 mph62%29.53 "HgN/A
11:30 AM45 °FPartly sunny.15 mph76%29.53 "HgN/A
11:00 AM45 °FPartly sunny.15 mph76%29.53 "HgN/A
10:30 AM43 °FPartly sunny.13 mph81%29.53 "HgN/A
10:00 AM41 °FPartly sunny.13 mph81%29.53 "HgN/A
9:30 AM39 °FPartly sunny.10 mph81%29.53 "HgN/A
9:00 AM37 °FSnow flurries. Partly sunny.17 mph87%29.53 "HgN/A
8:30 AM39 °FLight rain. Partly sunny.13 mph75%29.53 "HgN/A
8:00 AM39 °FPassing clouds.3 mph75%29.53 "HgN/A
7:30 AM36 °FPassing clouds.6 mph87%29.53 "HgN/A
7:00 AM36 °FPartly cloudy.8 mph87%29.53 "HgN/A
5:30 AM36 °FPartly cloudy.10 mph81%29.53 "HgN/A
5:00 AM36 °FPartly cloudy.10 mph81%29.53 "HgN/A
4:30 AM36 °FPartly cloudy.8 mph87%29.53 "HgN/A
4:00 AM34 °FPartly cloudy.10 mph87%29.53 "HgN/A
3:30 AM37 °FPartly cloudy.10 mph81%29.53 "HgN/A
3:00 AM37 °FPartly cloudy.8 mph81%29.53 "HgN/A
2:30 AM36 °FPartly cloudy.10 mph93%29.53 "HgN/A
2:00 AM36 °FPartly cloudy.10 mph93%29.53 "HgN/A
1:30 AM36 °FPartly cloudy.8 mph93%29.53 "HgN/A
1:00 AM37 °FPartly cloudy.6 mph87%29.53 "HgN/A
12:30 AM37 °FPartly cloudy.8 mph93%29.53 "HgN/A
12:00 AM37 °FPassing clouds.10 mph93%29.53 "HgN/A
Weather by CustomWeather, © 2015

See weather overviewHow to use our weather pages